Weather History for KALW - May, 2012

Change the Weather History Date:

Sunday, May 6, 2012

  Actual Average Record
Temperature  
Mean Temperature 52 °F -  
Max Temperature 64 °F 67 °F 93 °F (1992)
Min Temperature 39 °F 47 °F 34 °F (2001)
Degree Days  
Heating Degree Days 14    
Growing Degree Days 2 (Base 50)    
Moisture  
Dew Point 37 °F    
Average Humidity 59    
Maximum Humidity 79    
Minimum Humidity 39    
Precipitation  
Precipitation 0.00 in - - ()
Sea Level Pressure  
Sea Level Pressure 30.42 in    
Wind  
Wind Speed 5 mph (East)    
Max Wind Speed 10 mph    
Max Gust Speed -    
Visibility 10 miles    
Events      
Averages and records for this station are not official NWS values.
T = Trace of Precipitation, MM = Missing Value Source: NWS Daily Summary

Daily Weather History Graph

Daily Weather History Graph

Search for Another Location

Airport or City:

Trip Planner

Search our weather history database for the weather conditions in past years. The results will help you decide how hot, cold, wet, or windy it might be!

Date:

Astronomy

May. 06, 2012 Rise Set
Actual Time 5:31 AM PDT 8:08 PM PDT
Civil Twilight 4:57 AM PDT 8:42 PM PDT
Nautical Twilight 4:14 AM PDT 9:25 PM PDT
Astronomical Twilight 3:25 AM PDT 10:15 PM PDT
Moon 9:23 PM PDT 5:43 AM PDT
Length of Visible Light 15h 45m
Length of Day
14h 37m
Full, 99% of the Moon is Illuminated
May 6
Full
May 12
Last Quarter
May 20
New
May 28
First Quarter
Jun 4
Full

Hourly Weather History & Observations

Time (PDT) Temp. Windchill Dew Point Humidity Pressure Visibility Wind Dir Wind Speed Gust Speed Precip Events Conditions
12:53 AM 46.4 °F 42.4 °F 35.6 °F 66% 30.42 in 10.0 mi South 8.1 mph - N/A   Partly Cloudy
1:53 AM 45.0 °F 42.6 °F 34.0 °F 65% 30.43 in 10.0 mi SSE 4.6 mph - N/A   Clear
2:53 AM 44.1 °F 42.5 °F 34.0 °F 68% 30.44 in 10.0 mi SSE 3.5 mph - N/A   Clear
3:53 AM 39.0 °F 36.8 °F 33.1 °F 79% 30.45 in 10.0 mi ESE 3.5 mph - N/A   Clear
4:53 AM 39.0 °F 35.7 °F 32.0 °F 76% 30.45 in 10.0 mi SSE 4.6 mph - N/A   Clear
5:53 AM 41.0 °F 38.0 °F 33.1 °F 73% 30.45 in 10.0 mi SE 4.6 mph - N/A   Clear
6:53 AM 43.0 °F 41.3 °F 36.0 °F 76% 30.47 in 10.0 mi ESE 3.5 mph - N/A   Clear
7:53 AM 46.9 °F - 34.0 °F 61% 30.48 in 10.0 mi Calm Calm - N/A   Clear
8:53 AM 50.0 °F - 34.0 °F 54% 30.48 in 10.0 mi West 3.5 mph - N/A   Clear
9:53 AM 52.0 °F - 35.1 °F 53% 30.48 in 10.0 mi Calm Calm - N/A   Clear
10:53 AM 54.0 °F - 34.0 °F 47% 30.47 in 10.0 mi Calm Calm - N/A   Clear
11:53 AM 55.9 °F - 35.1 °F 45% 30.46 in 10.0 mi Calm Calm - N/A   Clear
12:53 PM 59.0 °F - 36.0 °F 42% 30.45 in 10.0 mi Calm Calm - N/A   Clear
1:53 PM 61.0 °F - 36.0 °F 39% 30.43 in 10.0 mi Calm Calm - N/A   Clear
2:53 PM 62.1 °F - 39.0 °F 43% 30.42 in 10.0 mi NW 9.2 mph - N/A   Clear
3:53 PM 64.0 °F - 39.0 °F 40% 30.40 in 10.0 mi North 5.8 mph - N/A   Clear
4:53 PM 64.0 °F - 39.0 °F 40% 30.38 in 10.0 mi North 5.8 mph - N/A   Clear
5:53 PM 63.0 °F - 39.9 °F 43% 30.37 in 10.0 mi NNW 6.9 mph - N/A   Clear
6:53 PM 61.0 °F - 42.1 °F 50% 30.36 in 10.0 mi North 8.1 mph - N/A   Clear
7:53 PM 55.0 °F - 44.1 °F 67% 30.36 in 10.0 mi ENE 5.8 mph - N/A   Clear
8:53 PM 52.0 °F - 41.0 °F 66% 30.37 in 10.0 mi East 10.4 mph - N/A   Clear
9:53 PM 48.0 °F - 39.9 °F 74% 30.37 in 10.0 mi East 9.2 mph - N/A   Clear
10:53 PM 46.0 °F 43.9 °F 39.9 °F 79% 30.37 in 10.0 mi East 4.6 mph - N/A   Clear
11:53 PM 50.0 °F - 37.9 °F 63% 30.36 in 10.0 mi South 4.6 mph - N/A   Clear